Current Weather Conditions: station 44139

sailwx.info

Wind from 180 at 17 knots gusting 19

Wave height 2.4 meters (7 feet), 9 second period

Air temperature 9.9° C
Water temperature 4.0° C

Last reported at 2016-May-06 14:00 UTC.
Time now 2016-May-06 14:56 UTC

Location: N 44°12' W 057°06'.
View on Google Maps.

See reports from other nearby stations

  
Tides and Currents Weather Stations Pressure Air Temp Water Temp Dewpoint Dewpoint Depression Visibility Wind Speed Wind Dir Waves Ship Positions
date/time (UTC)wind fromknots sea level pressurealtimeterstation pressurevisibilityair tempwater tempwave heightnotes
2016-May-06 14:00 180 17 gusting 19 9.9 4.0 2.4
2016-May-06 13:00 180 17 gusting 19 9.7 4.0 2.4
2016-May-06 12:00 180 17 gusting 21 9.7 4.0 2.4
2016-May-06 11:00 170 19 gusting 21 9.6 4.0 2.4
2016-May-06 10:00 180 17 gusting 19 9.5 3.9 2.3
2016-May-06 09:00 170 17 gusting 19 9.4 4.0 2.1
2016-May-06 08:00 180 17 gusting 19 9.6 4.0 2.1
2016-May-06 07:00 170 17 gusting 19 9.6 3.9 2.0
2016-May-06 06:00 170 15 gusting 17 9.3 3.9 2.1
2016-May-06 05:00 170 13 gusting 15 9.2 3.9 2.0
2016-May-06 04:00 170 15 gusting 17 9.1 3.9 1.9
2016-May-06 03:00 170 15 gusting 17 9.1 3.9 1.9
2016-May-06 02:00 170 15 gusting 17 8.9 3.9 1.9
2016-May-06 01:00 180 17 gusting 19 9.4 3.9 2.0
2016-May-06 00:00 170 15 gusting 17 9.2 3.9 2.0
2016-May-05 23:00 170 15 gusting 15 9.0 3.8 2.1
2016-May-05 22:00 170 15 gusting 19 9.3 3.9 1.8
2016-May-05 21:00 160 15 gusting 19 9.4 3.9 1.8
2016-May-05 20:00 160 13 gusting 15 8.9 4.0 1.8
2016-May-05 19:00 170 13 gusting 15 9.2 4.0 1.8
2016-May-05 18:00 170 13 gusting 15 8.7 4.1 1.7
2016-May-05 17:00 160 11 gusting 13 8.6 4.1 1.6
2016-May-05 16:00 170 11 gusting 13 8.4 3.9 1.7
2016-May-05 15:00 140 9 gusting 11 7.3 3.7 1.8
2016-May-05 14:00 130 9 gusting 9 6.4 3.7 1.8
2016-May-05 13:00 100 9 gusting 11 5.4 3.6 1.8
2016-May-05 12:00 100 11 gusting 15 5.1 3.5 1.8
2016-May-05 11:00 100 13 gusting 15 5.0 3.6 2.0
2016-May-05 10:00 080 11 gusting 13 4.8 3.6 1.9
2016-May-05 09:00 080 11 gusting 13 4.7 3.9 2.0
2016-May-05 08:00 070 13 gusting 15 4.6 3.9 1.9
2016-May-05 07:00 060 11 gusting 13 4.6 4.0 1.9
2016-May-05 06:00 070 9 gusting 11 4.6 4.2 1.9
2016-May-05 05:00 050 5 gusting 7 4.5 4.2 2.1
2016-May-05 04:00 040 5 gusting 7 4.4 4.3 2.1
2016-May-05 03:00 060 5 gusting 7 4.5 4.2 2.1
2016-May-05 02:00 050 5 gusting 7 4.2 3.8 2.1
2016-May-05 01:00 080 5 gusting 7 4.4 3.8 2.2
2016-May-05 00:00 360 3 gusting 7 3.9 3.7 2.2
2016-May-04 23:00 350 3 gusting 5 3.9 3.7 2.1
2016-May-04 22:00 320 3 gusting 5 3.8 3.8 2.0
2016-May-04 21:00 340 7 gusting 9 3.8 3.9 1.9
2016-May-04 20:00 330 5 gusting 7 3.8 4.1 2.0
2016-May-04 19:00 340 9 gusting 11 4.3 4.5 1.9
2016-May-04 18:00 340 7 gusting 7 4.8 4.6 2.1
2016-May-04 17:00 340 7 gusting 9 4.7 4.4 2.0
2016-May-04 16:00 340 7 gusting 9 4.9 4.3 2.1
2016-May-04 15:00 350 7 gusting 9 5.1 3.8 2.1
2016-May-04 14:00 350 7 gusting 9 5.2 3.8 2.3